Time,TemperatureF,DewpointF,PressureIn,WindDirection,WindDirectionDegrees,WindSpeedMPH,WindSpeedGustMPH,Humidity,HourlyPrecipIn,Conditions,Clouds,dailyrainin,SolarRadiationWatts/m^2,SoftwareType,DateUTC
2013-03-03 00:01:00,41.1,16.2,30.20,South,182,2.0,2.0,36,0.00,,SCT250,0.00,0.00,VWS V14.01,2013-03-03 07:01:00,
2013-03-03 00:06:00,40.9,16.0,30.20,South,182,0.0,0.0,36,0.00,,SCT250,0.00,0.00,VWS V14.01,2013-03-03 07:06:00,
2013-03-03 00:11:00,40.7,15.8,30.21,South,182,0.0,1.0,36,0.00,,SCT250,0.00,0.00,VWS V14.01,2013-03-03 07:11:00,
2013-03-03 00:16:00,40.6,16.4,30.20,South,182,0.0,1.0,37,0.00,,SCT250,0.00,0.00,VWS V14.01,2013-03-03 07:16:00,
2013-03-03 00:21:00,40.4,16.2,30.20,South,182,0.0,0.0,37,0.00,,SCT250,0.00,0.00,VWS V14.01,2013-03-03 07:21:00,
2013-03-03 00:26:00,40.2,16.0,30.20,South,182,0.0,0.0,37,0.00,,SCT250,0.00,0.00,VWS V14.01,2013-03-03 07:26:00,
2013-03-03 00:31:00,40.0,15.9,30.20,South,182,2.0,2.0,37,0.00,,SCT250,0.00,0.00,VWS V14.01,2013-03-03 07:31:00,
2013-03-03 00:36:00,39.8,16.3,30.20,South,182,1.0,2.0,38,0.00,,SCT250,0.00,0.00,VWS V14.01,2013-03-03 07:36:00,
2013-03-03 00:42:00,39.6,16.1,30.20,South,182,0.0,3.0,38,0.00,,SCT250,0.00,0.00,VWS V14.01,2013-03-03 07:42:00,
2013-03-03 00:47:00,39.5,16.0,30.20,South,182,0.0,2.0,38,0.00,,SCT250,0.00,0.00,VWS V14.01,2013-03-03 07:47:00,
2013-03-03 00:52:00,39.4,15.9,30.20,South,182,0.0,0.0,38,0.00,,SCT250,0.00,0.00,VWS V14.01,2013-03-03 07:52:00,
2013-03-03 00:57:00,39.3,15.8,30.20,South,182,1.0,3.0,38,0.00,,SCT250,0.00,0.00,VWS V14.01,2013-03-03 07:57:00,
2013-03-03 01:02:00,39.3,15.8,30.19,SW,220,0.0,3.0,38,0.00,,SCT250,0.00,0.00,VWS V14.01,2013-03-03 08:02:00,
2013-03-03 01:07:00,39.2,16.3,30.20,SW,233,3.0,4.0,39,0.00,,SCT250,0.00,0.00,VWS V14.01,2013-03-03 08:07:00,
2013-03-03 01:12:00,39.2,16.3,30.20,West,280,1.0,5.0,39,0.00,,SCT250,0.00,0.00,VWS V14.01,2013-03-03 08:12:00,
2013-03-03 01:17:00,39.2,15.7,30.20,West,280,0.0,0.0,38,0.00,,SCT250,0.00,0.00,VWS V14.01,2013-03-03 08:17:00,
2013-03-03 01:22:00,39.1,16.2,30.20,West,280,0.0,0.0,39,0.00,,SCT250,0.00,0.00,VWS V14.01,2013-03-03 08:22:00,
2013-03-03 01:27:00,39.1,16.2,30.20,West,280,0.0,0.0,39,0.00,,SCT250,0.00,0.00,VWS V14.01,2013-03-03 08:27:00,
2013-03-03 01:32:00,38.9,16.6,30.20,West,280,1.0,1.0,40,0.00,,SCT250,0.00,0.00,VWS V14.01,2013-03-03 08:32:00,
2013-03-03 01:37:00,38.8,16.6,30.20,West,280,0.0,0.0,40,0.00,,SCT250,0.00,0.00,VWS V14.01,2013-03-03 08:37:00,
2013-03-03 01:42:00,38.7,15.9,30.19,West,280,0.0,0.0,39,0.00,,SCT250,0.00,0.00,VWS V14.01,2013-03-03 08:42:00,
2013-03-03 01:47:00,38.7,15.9,30.19,West,280,0.0,1.0,39,0.00,,SCT250,0.00,0.00,VWS V14.01,2013-03-03 08:47:00,
2013-03-03 01:52:00,38.6,15.8,30.19,West,280,0.0,0.0,39,0.00,,SCT250,0.00,0.00,VWS V14.01,2013-03-03 08:52:00,
2013-03-03 01:57:00,38.4,15.6,30.19,West,280,0.0,0.0,39,0.00,,SCT250,0.00,0.00,VWS V14.01,2013-03-03 08:57:00,
2013-03-03 02:02:00,38.3,15.5,30.19,West,280,2.0,2.0,39,0.00,,SCT250,0.00,0.00,VWS V14.01,2013-03-03 09:02:00,
2013-03-03 02:07:00,38.1,15.4,30.18,West,280,0.0,0.0,39,0.00,,SCT250,0.00,0.00,VWS V14.01,2013-03-03 09:07:00,
2013-03-03 02:12:00,37.9,16.3,30.18,West,280,0.0,0.0,41,0.00,,SCT250,0.00,0.00,VWS V14.01,2013-03-03 09:12:00,
2013-03-03 02:17:00,37.7,15.6,30.18,West,280,0.0,0.0,40,0.00,,SCT250,0.00,0.00,VWS V14.01,2013-03-03 09:17:00,
2013-03-03 02:22:00,37.6,16.0,30.18,West,280,0.0,0.0,41,0.00,,SCT250,0.00,0.00,VWS V14.01,2013-03-03 09:22:00,
2013-03-03 02:27:00,37.5,16.0,30.18,West,280,0.0,0.0,41,0.00,,SCT250,0.00,0.00,VWS V14.01,2013-03-03 09:27:00,
2013-03-03 02:32:00,37.3,15.8,30.18,West,280,0.0,0.0,41,0.00,,SCT250,0.00,0.00,VWS V14.01,2013-03-03 09:32:00,
2013-03-03 02:38:00,37.2,15.7,30.17,West,280,0.0,0.0,41,0.00,,SCT250,0.00,0.00,VWS V14.01,2013-03-03 09:38:00,
2013-03-03 02:43:00,37.1,15.6,30.17,West,280,0.0,0.0,41,0.00,,SCT250,0.00,0.00,VWS V14.01,2013-03-03 09:43:00,
2013-03-03 02:48:00,36.9,15.4,30.17,West,280,0.0,0.0,41,0.00,,SCT250,0.00,0.00,VWS V14.01,2013-03-03 09:48:00,
2013-03-03 02:53:00,36.6,15.1,30.17,West,280,0.0,0.0,41,0.00,,SCT250,0.00,0.00,VWS V14.01,2013-03-03 09:53:00,
2013-03-03 02:58:00,36.4,15.0,30.17,West,280,0.0,0.0,41,0.00,,SCT250,0.00,0.00,VWS V14.01,2013-03-03 09:58:00,
2013-03-03 03:03:00,36.2,14.8,30.17,West,280,0.0,0.0,41,0.00,,BKN250,0.00,0.00,VWS V14.01,2013-03-03 10:03:00,
2013-03-03 03:08:00,35.9,14.5,30.17,West,280,0.0,0.0,41,0.00,,BKN250,0.00,0.00,VWS V14.01,2013-03-03 10:08:00,
2013-03-03 03:13:00,35.7,14.9,30.17,West,280,0.0,1.0,42,0.00,,BKN250,0.00,0.00,VWS V14.01,2013-03-03 10:13:00,
2013-03-03 03:18:00,35.5,15.2,30.16,West,280,0.0,0.0,43,0.00,,BKN250,0.00,0.00,VWS V14.01,2013-03-03 10:18:00,
2013-03-03 03:23:00,35.3,14.5,30.16,West,280,0.0,0.0,42,0.00,,BKN250,0.00,0.00,VWS V14.01,2013-03-03 10:23:00,
2013-03-03 03:28:00,35.1,14.9,30.16,West,280,0.0,0.0,43,0.00,,BKN250,0.00,0.00,VWS V14.01,2013-03-03 10:28:00,
2013-03-03 03:33:00,34.8,14.6,30.16,West,280,0.0,0.0,43,0.00,,BKN250,0.00,0.00,VWS V14.01,2013-03-03 10:33:00,
2013-03-03 03:38:00,34.5,14.9,30.16,West,280,0.0,1.0,44,0.00,,BKN250,0.00,0.00,VWS V14.01,2013-03-03 10:38:00,
2013-03-03 03:44:00,34.3,15.2,30.16,West,280,0.0,0.0,45,0.00,,BKN250,0.00,0.00,VWS V14.01,2013-03-03 10:44:00,
2013-03-03 03:49:00,34.1,14.5,30.16,West,280,0.0,0.0,44,0.00,,BKN250,0.00,0.00,VWS V14.01,2013-03-03 10:49:00,
2013-03-03 03:54:00,33.9,14.8,30.16,West,280,0.0,0.0,45,0.00,,BKN250,0.00,0.00,VWS V14.01,2013-03-03 10:54:00,
2013-03-03 03:59:00,33.8,15.2,30.16,West,280,0.0,0.0,46,0.00,,BKN250,0.00,0.00,VWS V14.01,2013-03-03 10:59:00,
2013-03-03 04:04:00,33.7,14.6,30.16,West,280,0.0,0.0,45,0.00,,SCT300,0.00,0.00,VWS V14.01,2013-03-03 11:04:00,
2013-03-03 04:09:00,33.5,14.4,30.15,West,280,0.0,0.0,45,0.00,,SCT300,0.00,0.00,VWS V14.01,2013-03-03 11:09:00,
2013-03-03 04:14:00,33.4,14.9,30.15,West,280,0.0,0.0,46,0.00,,SCT300,0.00,0.00,VWS V14.01,2013-03-03 11:14:00,
2013-03-03 04:19:00,33.3,15.3,30.16,West,280,0.0,0.0,47,0.00,,SCT300,0.00,0.00,VWS V14.01,2013-03-03 11:19:00,
2013-03-03 04:24:00,33.2,15.6,30.15,West,280,0.0,0.0,48,0.00,,SCT300,0.00,0.00,VWS V14.01,2013-03-03 11:24:00,
2013-03-03 04:29:00,33.3,15.7,30.15,West,280,0.0,0.0,48,0.00,,SCT300,0.00,0.00,VWS V14.01,2013-03-03 11:29:00,
2013-03-03 04:34:00,33.4,15.8,30.15,West,280,0.0,0.0,48,0.00,,SCT300,0.00,0.00,VWS V14.01,2013-03-03 11:34:00,
2013-03-03 04:39:00,33.4,15.8,30.15,West,280,0.0,0.0,48,0.00,,SCT300,0.00,0.00,VWS V14.01,2013-03-03 11:39:00,
2013-03-03 04:44:00,33.3,15.7,30.15,West,280,0.0,0.0,48,0.00,,SCT300,0.00,0.00,VWS V14.01,2013-03-03 11:44:00,
2013-03-03 04:49:00,33.3,15.7,30.15,West,280,0.0,0.0,48,0.00,,SCT300,0.00,0.00,VWS V14.01,2013-03-03 11:49:00,
2013-03-03 04:55:00,33.2,15.2,30.15,West,280,0.0,0.0,47,0.00,,SCT300,0.00,0.00,VWS V14.01,2013-03-03 11:55:00,
2013-03-03 05:00:00,33.2,15.2,30.15,West,280,0.0,0.0,47,0.00,,SCT300,0.00,0.00,VWS V14.01,2013-03-03 12:00:00,
2013-03-03 05:05:00,33.1,15.1,30.15,West,280,1.0,2.0,47,0.00,,SCT200,0.00,0.00,VWS V14.01,2013-03-03 12:05:00,
2013-03-03 05:10:00,33.0,15.5,30.15,West,280,0.0,0.0,48,0.00,,SCT200,0.00,0.00,VWS V14.01,2013-03-03 12:10:00,
2013-03-03 05:15:00,32.8,15.3,30.14,West,280,0.0,0.0,48,0.00,,SCT200,0.00,0.00,VWS V14.01,2013-03-03 12:15:00,
2013-03-03 05:20:00,32.7,15.2,30.15,West,280,0.0,2.0,48,0.00,,SCT200,0.00,0.00,VWS V14.01,2013-03-03 12:20:00,
2013-03-03 05:25:00,32.6,15.6,30.14,West,280,0.0,0.0,49,0.00,,SCT200,0.00,0.00,VWS V14.01,2013-03-03 12:25:00,
2013-03-03 05:30:00,32.4,15.4,30.14,West,280,0.0,0.0,49,0.00,,SCT200,0.00,0.00,VWS V14.01,2013-03-03 12:30:00,
2013-03-03 05:35:00,32.3,15.8,30.14,West,280,0.0,0.0,50,0.00,,SCT200,0.00,0.00,VWS V14.01,2013-03-03 12:35:00,
2013-03-03 05:40:00,32.3,15.8,30.14,West,280,0.0,0.0,50,0.00,,SCT200,0.00,0.00,VWS V14.01,2013-03-03 12:40:00,
2013-03-03 05:45:00,32.2,15.7,30.14,West,280,0.0,0.0,50,0.00,,SCT200,0.00,0.00,VWS V14.01,2013-03-03 12:45:00,
2013-03-03 05:50:00,32.1,15.6,30.14,West,280,0.0,0.0,50,0.00,,SCT200,0.00,0.00,VWS V14.01,2013-03-03 12:50:00,
2013-03-03 05:55:00,32.0,15.9,30.14,West,280,0.0,0.0,51,0.00,,SCT200,0.00,0.00,VWS V14.01,2013-03-03 12:55:00,
2013-03-03 06:00:00,31.9,15.4,30.14,West,280,0.0,0.0,50,0.00,,SCT200,0.00,0.00,VWS V14.01,2013-03-03 13:00:00,
2013-03-03 06:05:00,31.8,15.8,30.14,West,280,0.0,0.0,51,0.00,,SCT200,0.00,0.00,VWS V14.01,2013-03-03 13:05:00,
2013-03-03 06:10:00,31.7,16.1,30.14,West,280,0.0,3.0,52,0.00,,SCT200,0.00,0.00,VWS V14.01,2013-03-03 13:10:00,
2013-03-03 06:15:00,31.6,16.0,30.14,West,280,0.0,1.0,52,0.00,,SCT200,0.00,0.00,VWS V14.01,2013-03-03 13:15:00,
2013-03-03 06:20:00,31.6,16.0,30.14,West,280,0.0,0.0,52,0.00,,SCT200,0.00,0.00,VWS V14.01,2013-03-03 13:20:00,
2013-03-03 06:25:00,31.5,15.9,30.14,West,280,0.0,0.0,52,0.00,,SCT200,0.00,0.00,VWS V14.01,2013-03-03 13:25:00,
2013-03-03 06:30:00,31.4,16.3,30.14,West,280,0.0,0.0,53,0.00,,SCT190,0.00,0.00,VWS V14.01,2013-03-03 13:30:00,
2013-03-03 06:35:00,31.3,16.6,30.14,West,280,0.0,0.0,54,0.00,,SCT190,0.00,0.00,VWS V14.01,2013-03-03 13:35:00,
2013-03-03 06:41:00,31.2,16.5,30.14,West,280,1.0,1.0,54,0.00,,SCT190,0.00,7.00,VWS V14.01,2013-03-03 13:41:00,
2013-03-03 06:46:00,31.1,16.4,30.14,West,280,0.0,1.0,54,0.00,,SCT190,0.00,11.00,VWS V14.01,2013-03-03 13:46:00,
2013-03-03 06:51:00,31.1,16.8,30.14,West,280,0.0,0.0,55,0.00,,SCT190,0.00,14.00,VWS V14.01,2013-03-03 13:51:00,
2013-03-03 06:56:00,31.0,16.7,30.14,West,280,0.0,0.0,55,0.00,,SCT190,0.00,21.00,VWS V14.01,2013-03-03 13:56:00,
2013-03-03 07:01:00,31.0,16.7,30.14,West,280,0.0,0.0,55,0.00,,SCT190,0.00,30.00,VWS V14.01,2013-03-03 14:01:00,
2013-03-03 07:06:00,31.0,17.2,30.14,West,280,0.0,0.0,56,0.00,,SCT190,0.00,37.00,VWS V14.01,2013-03-03 14:06:00,
2013-03-03 07:11:00,31.0,17.2,30.14,West,280,0.0,0.0,56,0.00,,SCT190,0.00,42.00,VWS V14.01,2013-03-03 14:11:00,
2013-03-03 07:16:00,31.0,17.2,30.14,West,280,0.0,0.0,56,0.00,,SCT190,0.00,44.00,VWS V14.01,2013-03-03 14:16:00,
2013-03-03 07:21:00,31.1,17.7,30.14,West,280,0.0,0.0,57,0.00,,SCT190,0.00,44.00,VWS V14.01,2013-03-03 14:21:00,
2013-03-03 07:26:00,31.3,17.9,30.14,West,280,0.0,0.0,57,0.00,,SCT190,0.00,42.00,VWS V14.01,2013-03-03 14:26:00,
2013-03-03 07:31:00,32.7,18.8,30.14,West,280,0.0,0.0,56,0.00,,SCT190,0.00,76.00,VWS V14.01,2013-03-03 14:31:00,
2013-03-03 07:36:00,34.2,18.9,30.14,West,280,0.0,0.0,53,0.00,,SCT190,0.00,153.00,VWS V14.01,2013-03-03 14:36:00,
2013-03-03 07:41:00,36.6,19.3,30.14,West,280,0.0,0.0,49,0.00,,SCT190,0.00,190.00,VWS V14.01,2013-03-03 14:41:00,
2013-03-03 07:46:00,38.2,18.8,30.14,SSW,208,0.0,0.0,45,0.00,,SCT190,0.00,251.00,VWS V14.01,2013-03-03 14:46:00,
2013-03-03 07:51:00,39.2,18.6,30.13,SSW,208,0.0,0.0,43,0.00,,SCT190,0.00,290.00,VWS V14.01,2013-03-03 14:51:00,
2013-03-03 07:56:00,40.4,18.6,30.13,SSW,208,0.0,0.0,41,0.00,,SCT190,0.00,322.00,VWS V14.01,2013-03-03 14:56:00,
2013-03-03 08:01:00,40.9,19.0,30.13,SSW,208,0.0,1.0,41,0.00,,BKN220,0.00,367.00,VWS V14.01,2013-03-03 15:01:00,
2013-03-03 08:06:00,41.7,19.8,30.13,SSW,208,1.0,4.0,41,0.00,,BKN220,0.00,420.00,VWS V14.01,2013-03-03 15:06:00,
2013-03-03 08:11:00,42.7,20.1,30.13,SW,214,0.0,1.0,40,0.00,,BKN220,0.00,445.00,VWS V14.01,2013-03-03 15:11:00,
2013-03-03 08:16:00,43.8,21.1,30.13,SSW,204,0.0,3.0,40,0.00,,BKN220,0.00,353.00,VWS V14.01,2013-03-03 15:16:00,
2013-03-03 08:21:00,44.3,20.9,30.13,SSW,204,0.0,3.0,39,0.00,,BKN220,0.00,497.00,VWS V14.01,2013-03-03 15:21:00,
2013-03-03 08:26:00,44.9,20.9,30.13,SSW,203,0.0,5.0,38,0.00,,BKN220,0.00,183.00,VWS V14.01,2013-03-03 15:26:00,
2013-03-03 08:32:00,44.9,20.9,30.13,South,186,1.0,3.0,38,0.00,,BKN220,0.00,181.00,VWS V14.01,2013-03-03 15:32:00,
2013-03-03 08:37:00,45.0,21.5,30.13,South,180,2.0,5.0,39,0.00,,BKN220,0.00,185.00,VWS V14.01,2013-03-03 15:37:00,
2013-03-03 08:42:00,45.0,20.9,30.13,South,180,5.0,5.0,38,0.00,,BKN220,0.00,225.00,VWS V14.01,2013-03-03 15:42:00,
2013-03-03 08:47:00,45.0,21.5,30.13,South,180,1.0,3.0,39,0.00,,BKN220,0.00,269.00,VWS V14.01,2013-03-03 15:47:00,
2013-03-03 08:52:00,45.2,21.1,30.13,South,180,0.0,5.0,38,0.00,,BKN220,0.00,98.00,VWS V14.01,2013-03-03 15:52:00,
2013-03-03 08:57:00,45.4,20.7,30.12,South,180,0.0,5.0,37,0.00,,BKN220,0.00,536.00,VWS V14.01,2013-03-03 15:57:00,
2013-03-03 09:02:00,46.1,21.3,30.12,South,179,1.0,5.0,37,0.00,,BKN200,0.00,580.00,VWS V14.01,2013-03-03 16:02:00,
2013-03-03 09:07:00,47.2,21.6,30.12,South,180,3.0,3.0,36,0.00,,BKN200,0.00,631.00,VWS V14.01,2013-03-03 16:07:00,
2013-03-03 09:12:00,47.6,20.6,30.12,South,184,1.0,8.0,34,0.00,,BKN200,0.00,606.00,VWS V14.01,2013-03-03 16:12:00,
2013-03-03 09:17:00,48.2,21.2,30.11,South,177,2.0,6.0,34,0.00,,BKN200,0.00,462.00,VWS V14.01,2013-03-03 16:17:00,
2013-03-03 09:22:00,48.5,20.0,30.11,South,171,0.0,7.0,32,0.00,,BKN200,0.00,281.00,VWS V14.01,2013-03-03 16:22:00,
2013-03-03 09:27:00,48.4,19.9,30.11,South,184,2.0,7.0,32,0.00,,BKN200,0.00,455.00,VWS V14.01,2013-03-03 16:27:00,
2013-03-03 09:32:00,49.0,20.4,30.11,SSW,192,2.0,6.0,32,0.00,,BKN200,0.00,601.00,VWS V14.01,2013-03-03 16:32:00,
2013-03-03 09:38:00,50.0,19.8,30.11,SSW,195,3.0,7.0,30,0.00,,BKN200,0.00,712.00,VWS V14.01,2013-03-03 16:38:00,
2013-03-03 09:43:00,51.2,20.9,30.11,South,172,3.0,4.0,30,0.00,,BKN200,0.00,791.00,VWS V14.01,2013-03-03 16:43:00,
2013-03-03 09:48:00,52.1,20.8,30.11,South,172,1.0,3.0,29,0.00,,BKN200,0.00,202.00,VWS V14.01,2013-03-03 16:48:00,
2013-03-03 09:53:00,51.6,20.4,30.11,SSE,154,0.0,4.0,29,0.00,,BKN200,0.00,146.00,VWS V14.01,2013-03-03 16:53:00,
2013-03-03 09:58:00,51.3,20.1,30.11,SSE,156,0.0,3.0,29,0.00,,BKN200,0.00,146.00,VWS V14.01,2013-03-03 16:58:00,
2013-03-03 10:03:00,52.1,20.8,30.10,South,174,2.0,5.0,29,0.00,,BKN250,0.00,686.00,VWS V14.01,2013-03-03 17:03:00,
2013-03-03 10:08:00,53.0,21.6,30.10,South,174,0.0,4.0,29,0.00,,BKN250,0.00,626.00,VWS V14.01,2013-03-03 17:08:00,
2013-03-03 10:13:00,53.5,20.4,30.10,South,182,2.0,6.0,27,0.00,,BKN250,0.00,640.00,VWS V14.01,2013-03-03 17:13:00,
2013-03-03 10:18:00,54.3,21.0,30.10,South,175,0.0,4.0,27,0.00,,BKN250,0.00,531.00,VWS V14.01,2013-03-03 17:18:00,
2013-03-03 10:23:00,56.1,21.7,30.09,South,170,2.0,3.0,26,0.00,,BKN250,0.00,759.00,VWS V14.01,2013-03-03 17:23:00,
2013-03-03 10:28:00,56.7,21.3,30.09,South,174,1.0,5.0,25,0.00,,BKN250,0.00,661.00,VWS V14.01,2013-03-03 17:28:00,
2013-03-03 10:34:00,56.4,21.0,30.09,SSE,166,3.0,5.0,25,0.00,,BKN250,0.00,308.00,VWS V14.01,2013-03-03 17:34:00,
2013-03-03 10:39:00,56.0,20.7,30.08,SSE,160,3.0,5.0,25,0.00,,BKN250,0.00,587.00,VWS V14.01,2013-03-03 17:39:00,
2013-03-03 10:44:00,56.2,19.9,30.08,SSE,166,3.0,4.0,24,0.00,,BKN250,0.00,234.00,VWS V14.01,2013-03-03 17:44:00,
2013-03-03 10:49:00,56.9,20.5,30.08,SE,124,2.0,2.0,24,0.00,,BKN250,0.00,779.00,VWS V14.01,2013-03-03 17:49:00,
2013-03-03 10:54:00,58.0,21.4,30.08,South,175,0.0,4.0,24,0.00,,BKN250,0.00,779.00,VWS V14.01,2013-03-03 17:54:00,
2013-03-03 10:59:00,59.0,22.3,30.07,South,177,1.0,6.0,24,0.00,,BKN250,0.00,789.00,VWS V14.01,2013-03-03 17:59:00,
2013-03-03 11:04:00,59.6,20.7,30.07,SSW,203,2.0,6.0,22,0.00,,BKN250,0.00,805.00,VWS V14.01,2013-03-03 18:04:00,
2013-03-03 11:09:00,59.6,19.6,30.06,SSW,194,4.0,7.0,21,0.00,,BKN250,0.00,810.00,VWS V14.01,2013-03-03 18:09:00,
2013-03-03 11:14:00,59.9,19.9,30.06,South,190,5.0,10.0,21,0.00,,BKN250,0.00,696.00,VWS V14.01,2013-03-03 18:14:00,
2013-03-03 11:19:00,60.2,20.1,30.06,South,185,3.0,8.0,21,0.00,,BKN250,0.00,666.00,VWS V14.01,2013-03-03 18:19:00,
2013-03-03 11:24:00,60.7,21.7,30.05,SSW,206,7.0,9.0,22,0.00,,BKN250,0.00,914.00,VWS V14.01,2013-03-03 18:24:00,
2013-03-03 11:29:00,61.4,18.8,30.05,SSW,194,2.0,9.0,19,0.00,,BKN250,0.00,928.00,VWS V14.01,2013-03-03 18:29:00,
2013-03-03 11:34:00,62.0,19.3,30.05,SSW,196,0.0,8.0,19,0.00,,BKN250,0.00,682.00,VWS V14.01,2013-03-03 18:34:00,
2013-03-03 11:39:00,61.9,20.4,30.05,SSW,195,1.0,9.0,20,0.00,,BKN250,0.00,476.00,VWS V14.01,2013-03-03 18:39:00,
2013-03-03 11:44:00,61.9,19.2,30.04,South,191,7.0,10.0,19,0.00,,BKN250,0.00,870.00,VWS V14.01,2013-03-03 18:44:00,
2013-03-03 11:49:00,61.3,18.7,30.04,South,176,2.0,10.0,19,0.00,,BKN250,0.00,281.00,VWS V14.01,2013-03-03 18:49:00,
2013-03-03 11:54:00,61.6,19.0,30.04,South,176,4.0,6.0,19,0.00,,BKN250,0.00,504.00,VWS V14.01,2013-03-03 18:54:00,
2013-03-03 11:59:00,61.7,19.0,30.04,South,174,1.0,2.0,19,0.00,,BKN250,0.00,884.00,VWS V14.01,2013-03-03 18:59:00,
2013-03-03 12:04:00,62.9,18.8,30.03,SE,138,1.0,8.0,18,0.00,,BKN250,0.00,946.00,VWS V14.01,2013-03-03 19:04:00,
2013-03-03 12:09:00,64.8,19.0,30.03,SSE,161,0.0,2.0,17,0.00,,BKN250,0.00,891.00,VWS V14.01,2013-03-03 19:09:00,
2013-03-03 12:14:00,65.8,18.4,30.03,South,189,2.0,3.0,16,0.00,,BKN250,0.00,884.00,VWS V14.01,2013-03-03 19:14:00,
2013-03-03 12:19:00,64.8,17.6,30.02,South,189,1.0,2.0,16,0.00,,BKN250,0.00,921.00,VWS V14.01,2013-03-03 19:19:00,
2013-03-03 12:24:00,65.4,18.1,30.02,South,183,0.0,1.0,16,0.00,,BKN250,0.00,930.00,VWS V14.01,2013-03-03 19:24:00,
2013-03-03 12:29:00,66.8,19.2,30.02,SSE,166,1.0,2.0,16,0.00,,BKN250,0.00,900.00,VWS V14.01,2013-03-03 19:29:00,
2013-03-03 12:34:00,66.7,17.6,30.01,South,171,3.0,6.0,15,0.00,,BKN250,0.00,352.00,VWS V14.01,2013-03-03 19:34:00,
2013-03-03 12:39:00,65.5,16.7,30.01,South,169,0.0,1.0,15,0.00,,BKN250,0.00,698.00,VWS V14.01,2013-03-03 19:39:00,
2013-03-03 12:44:00,65.6,18.2,30.01,South,186,3.0,5.0,16,0.00,,BKN250,0.00,323.00,VWS V14.01,2013-03-03 19:44:00,
2013-03-03 12:49:00,65.4,16.6,30.00,South,180,4.0,4.0,15,0.00,,BKN250,0.00,390.00,VWS V14.01,2013-03-03 19:49:00,
2013-03-03 12:55:00,64.9,16.2,30.00,South,184,2.0,5.0,15,0.00,,BKN250,0.00,334.00,VWS V14.01,2013-03-03 19:55:00,
2013-03-03 12:59:00,64.7,17.5,30.00,South,182,0.0,2.0,16,0.00,,BKN250,0.00,297.00,VWS V14.01,2013-03-03 19:59:00,
2013-03-03 13:04:00,65.4,18.1,29.99,ESE,121,1.0,3.0,16,0.00,,BKN250,0.00,290.00,VWS V14.01,2013-03-03 20:04:00,
2013-03-03 13:10:00,65.6,16.7,29.99,ESE,122,0.0,2.0,15,0.00,,BKN250,0.00,179.00,VWS V14.01,2013-03-03 20:10:00,
2013-03-03 13:15:00,65.4,15.0,29.98,ESE,105,5.0,5.0,14,0.00,,BKN250,0.00,163.00,VWS V14.01,2013-03-03 20:15:00,
2013-03-03 13:20:00,65.3,14.9,29.98,SE,136,0.0,3.0,14,0.00,,BKN250,0.00,192.00,VWS V14.01,2013-03-03 20:20:00,
2013-03-03 13:25:00,65.2,14.8,29.98,ESE,110,0.0,2.0,14,0.00,,BKN250,0.00,185.00,VWS V14.01,2013-03-03 20:25:00,
2013-03-03 13:30:00,65.0,14.7,29.98,ESE,110,0.0,3.0,14,0.00,,BKN250,0.00,229.00,VWS V14.01,2013-03-03 20:30:00,
2013-03-03 13:35:00,65.5,13.4,29.98,ENE,66,1.0,6.0,13,0.00,,BKN250,0.00,387.00,VWS V14.01,2013-03-03 20:35:00,
2013-03-03 13:40:00,66.1,13.9,29.98,East,89,1.0,3.0,13,0.00,,BKN250,0.00,308.00,VWS V14.01,2013-03-03 20:40:00,
2013-03-03 13:45:00,66.3,14.0,29.97,East,95,2.0,2.0,13,0.00,,BKN250,0.00,186.00,VWS V14.01,2013-03-03 20:45:00,
2013-03-03 13:50:00,67.0,3.8,29.96,WSW,251,7.0,9.0,8,0.00,,BKN250,0.00,274.00,VWS V14.01,2013-03-03 20:50:00,
2013-03-03 13:55:00,68.2,1.8,29.97,West,260,8.0,8.0,7,0.00,,BKN250,0.00,239.00,VWS V14.01,2013-03-03 20:55:00,
2013-03-03 14:00:00,68.7,-1.1,29.96,West,265,2.0,10.0,6,0.00,,BKN250,0.00,206.00,VWS V14.01,2013-03-03 21:00:00,
2013-03-03 14:05:00,68.8,-1.1,29.96,West,275,5.0,8.0,6,0.00,,BKN250,0.00,253.00,VWS V14.01,2013-03-03 21:05:00,
2013-03-03 14:10:00,68.8,-1.1,29.96,SW,219,7.0,10.0,6,0.00,,BKN250,0.00,199.00,VWS V14.01,2013-03-03 21:10:00,
2013-03-03 14:15:00,68.8,-1.1,29.96,WSW,257,7.0,19.0,6,0.00,,BKN250,0.00,188.00,VWS V14.01,2013-03-03 21:15:00,
2013-03-03 14:21:00,68.5,-1.3,29.95,WSW,254,7.0,11.0,6,0.00,,BKN250,0.00,236.00,VWS V14.01,2013-03-03 21:21:00,
2013-03-03 14:26:00,68.3,-1.4,29.95,NW,321,8.0,12.0,6,0.00,,BKN250,0.00,234.00,VWS V14.01,2013-03-03 21:26:00,
2013-03-03 14:31:00,68.3,-1.4,29.95,West,275,4.0,16.0,6,0.00,,BKN250,0.00,267.00,VWS V14.01,2013-03-03 21:31:00,
2013-03-03 14:36:00,68.5,-1.3,29.94,WSW,245,6.0,12.0,6,0.00,,BKN250,0.00,438.00,VWS V14.01,2013-03-03 21:36:00,
2013-03-03 14:41:00,69.0,-4.7,29.94,WNW,297,6.0,16.0,5,0.00,,BKN250,0.00,494.00,VWS V14.01,2013-03-03 21:41:00,
2013-03-03 14:46:00,69.3,-0.7,29.94,WNW,291,7.0,13.0,6,0.00,,BKN250,0.00,415.00,VWS V14.01,2013-03-03 21:46:00,
2013-03-03 14:51:00,69.2,-4.6,29.94,West,279,4.0,11.0,5,0.00,,BKN250,0.00,278.00,VWS V14.01,2013-03-03 21:51:00,
2013-03-03 14:56:00,69.6,-0.5,29.94,NW,309,10.0,18.0,6,0.00,,BKN250,0.00,260.00,VWS V14.01,2013-03-03 21:56:00,
2013-03-03 15:01:00,69.5,-4.4,29.94,West,274,9.0,10.0,5,0.00,,BKN180,0.00,397.00,VWS V14.01,2013-03-03 22:01:00,
2013-03-03 15:06:00,69.3,-0.7,29.94,WSW,240,2.0,9.0,6,0.00,,BKN180,0.00,316.00,VWS V14.01,2013-03-03 22:06:00,
2013-03-03 15:11:00,70.0,-0.2,29.94,West,270,3.0,14.0,6,0.00,,BKN180,0.00,267.00,VWS V14.01,2013-03-03 22:11:00,
2013-03-03 15:16:00,69.9,3.0,29.95,West,273,3.0,13.0,7,0.00,,BKN180,0.00,257.00,VWS V14.01,2013-03-03 22:16:00,
2013-03-03 15:21:00,69.8,-0.3,29.94,WSW,256,2.0,9.0,6,0.00,,BKN180,0.00,492.00,VWS V14.01,2013-03-03 22:21:00,
2013-03-03 15:27:00,70.1,3.2,29.94,West,276,7.0,8.0,7,0.00,,BKN180,0.00,566.00,VWS V14.01,2013-03-03 22:27:00,
2013-03-03 15:32:00,70.6,0.2,29.94,West,281,4.0,8.0,6,0.00,,BKN180,0.00,545.00,VWS V14.01,2013-03-03 22:32:00,
2013-03-03 15:37:00,71.1,0.6,29.94,WNW,286,7.0,11.0,6,0.00,,BKN180,0.00,369.00,VWS V14.01,2013-03-03 22:37:00,
2013-03-03 15:42:00,71.2,0.7,29.94,West,280,0.0,7.0,6,0.00,,BKN180,0.00,257.00,VWS V14.01,2013-03-03 22:42:00,
2013-03-03 15:47:00,71.5,0.9,29.94,WSW,253,3.0,10.0,6,0.00,,BKN180,0.00,174.00,VWS V14.01,2013-03-03 22:47:00,
2013-03-03 15:52:00,71.0,0.5,29.93,West,271,2.0,13.0,6,0.00,,BKN180,0.00,288.00,VWS V14.01,2013-03-03 22:52:00,
2013-03-03 15:57:00,70.7,0.3,29.93,West,263,4.0,11.0,6,0.00,,BKN180,0.00,211.00,VWS V14.01,2013-03-03 22:57:00,
2013-03-03 16:02:00,70.3,0.0,29.93,West,259,6.0,13.0,6,0.00,,BKN180,0.00,193.00,VWS V14.01,2013-03-03 23:02:00,
2013-03-03 16:07:00,69.9,3.0,29.93,West,265,0.0,9.0,7,0.00,,BKN180,0.00,155.00,VWS V14.01,2013-03-03 23:07:00,
2013-03-03 16:12:00,69.5,2.7,29.93,WNW,290,14.0,16.0,7,0.00,,BKN180,0.00,186.00,VWS V14.01,2013-03-03 23:12:00,
2013-03-03 16:17:00,69.1,2.5,29.93,NW,304,13.0,13.0,7,0.00,,BKN180,0.00,139.00,VWS V14.01,2013-03-03 23:17:00,
2013-03-03 16:22:00,68.8,5.1,29.93,West,273,8.0,12.0,8,0.00,,BKN180,0.00,137.00,VWS V14.01,2013-03-03 23:22:00,
2013-03-03 16:27:00,68.5,4.9,29.93,WSW,251,3.0,13.0,8,0.00,,BKN180,0.00,100.00,VWS V14.01,2013-03-03 23:27:00,
2013-03-03 16:33:00,68.1,4.6,29.93,NW,315,16.0,16.0,8,0.00,,BKN180,0.00,70.00,VWS V14.01,2013-03-03 23:33:00,
2013-03-03 16:38:00,67.6,4.2,29.93,West,263,5.0,15.0,8,0.00,,BKN180,0.00,76.00,VWS V14.01,2013-03-03 23:38:00,
2013-03-03 16:43:00,67.1,3.8,29.93,WNW,295,9.0,16.0,8,0.00,,BKN180,0.00,90.00,VWS V14.01,2013-03-03 23:43:00,
2013-03-03 16:48:00,66.8,0.8,29.93,West,276,6.0,16.0,7,0.00,,BKN180,0.00,65.00,VWS V14.01,2013-03-03 23:48:00,
2013-03-03 16:53:00,66.3,0.4,29.93,West,281,10.0,16.0,7,0.00,,BKN180,0.00,42.00,VWS V14.01,2013-03-03 23:53:00,
2013-03-03 16:58:00,66.0,3.0,29.93,West,275,6.0,14.0,8,0.00,,BKN180,0.00,40.00,VWS V14.01,2013-03-03 23:58:00,
2013-03-03 17:03:00,65.7,2.8,29.93,West,264,6.0,16.0,8,0.00,,BKN180,0.00,37.00,VWS V14.01,2013-03-04 00:03:00,
2013-03-03 17:08:00,65.5,2.7,29.94,WNW,286,8.0,13.0,8,0.00,,BKN180,0.00,32.00,VWS V14.01,2013-03-04 00:08:00,
2013-03-03 17:13:00,65.2,2.4,29.94,West,281,12.0,15.0,8,0.00,,BKN180,0.00,32.00,VWS V14.01,2013-03-04 00:13:00,
2013-03-03 17:18:00,65.0,2.3,29.93,West,274,6.0,14.0,8,0.00,,BKN180,0.00,23.00,VWS V14.01,2013-03-04 00:18:00,
2013-03-03 17:23:00,64.7,4.6,29.94,WNW,289,4.0,19.0,9,0.00,,BKN180,0.00,23.00,VWS V14.01,2013-03-04 00:23:00,
2013-03-03 17:28:00,64.4,4.4,29.94,WNW,284,8.0,13.0,9,0.00,,BKN180,0.00,33.00,VWS V14.01,2013-03-04 00:28:00,
2013-03-03 17:33:00,64.2,4.2,29.94,West,278,5.0,15.0,9,0.00,,BKN180,0.00,33.00,VWS V14.01,2013-03-04 00:33:00,
2013-03-03 17:39:00,64.0,6.4,29.94,West,262,8.0,12.0,10,0.00,,BKN180,0.00,16.00,VWS V14.01,2013-03-04 00:39:00,
2013-03-03 17:44:00,63.8,6.2,29.94,WNW,298,2.0,10.0,10,0.00,,BKN180,0.00,16.00,VWS V14.01,2013-03-04 00:44:00,
2013-03-03 17:49:00,63.6,8.1,29.94,West,276,5.0,12.0,11,0.00,,BKN180,0.00,9.00,VWS V14.01,2013-03-04 00:49:00,
2013-03-03 17:54:00,63.4,8.0,29.95,WSW,257,3.0,4.0,11,0.00,,BKN180,0.00,7.00,VWS V14.01,2013-03-04 00:54:00,
2013-03-03 17:59:00,63.3,7.9,29.95,West,279,4.0,4.0,11,0.00,,BKN180,0.00,0.00,VWS V14.01,2013-03-04 00:59:00,
2013-03-03 18:04:00,63.1,9.7,29.95,SW,229,10.0,11.0,12,0.00,,BKN180,0.00,0.00,VWS V14.01,2013-03-04 01:04:00,
2013-03-03 18:09:00,62.7,17.3,29.95,West,259,7.0,11.0,17,0.00,,BKN180,0.00,0.00,VWS V14.01,2013-03-04 01:09:00,
2013-03-03 18:14:00,62.4,18.4,29.95,WSW,252,12.0,12.0,18,0.00,,BKN180,0.00,0.00,VWS V14.01,2013-03-04 01:14:00,
2013-03-03 18:19:00,62.0,18.0,29.96,West,272,6.0,11.0,18,0.00,,BKN180,0.00,0.00,VWS V14.01,2013-03-04 01:19:00,
2013-03-03 18:24:00,61.8,19.1,29.95,WSW,254,7.0,8.0,19,0.00,,BKN180,0.00,0.00,VWS V14.01,2013-03-04 01:24:00,
2013-03-03 18:29:00,61.7,19.0,29.95,WNW,284,5.0,12.0,19,0.00,,BKN180,0.00,0.00,VWS V14.01,2013-03-04 01:29:00,
2013-03-03 18:35:00,61.6,19.0,29.96,West,271,8.0,11.0,19,0.00,,BKN180,0.00,0.00,VWS V14.01,2013-03-04 01:35:00,
2013-03-03 18:40:00,61.4,18.8,29.96,West,259,9.0,9.0,19,0.00,,BKN180,0.00,0.00,VWS V14.01,2013-03-04 01:40:00,
2013-03-03 18:45:00,61.3,18.7,29.96,West,281,10.0,10.0,19,0.00,,BKN180,0.00,0.00,VWS V14.01,2013-03-04 01:45:00,
2013-03-03 18:50:00,61.1,18.5,29.96,WNW,288,2.0,5.0,19,0.00,,BKN180,0.00,0.00,VWS V14.01,2013-03-04 01:50:00,
2013-03-03 18:55:00,61.0,18.5,29.95,WNW,286,6.0,8.0,19,0.00,,BKN180,0.00,0.00,VWS V14.01,2013-03-04 01:55:00,
2013-03-03 19:00:00,60.9,18.4,29.95,WNW,296,4.0,5.0,19,0.00,,BKN150,0.00,0.00,VWS V14.01,2013-03-04 02:00:00,
2013-03-03 19:05:00,60.8,18.3,29.96,WNW,293,0.0,2.0,19,0.00,,BKN150,0.00,0.00,VWS V14.01,2013-03-04 02:05:00,
2013-03-03 19:10:00,60.6,19.3,29.96,WNW,293,0.0,3.0,20,0.00,,BKN150,0.00,0.00,VWS V14.01,2013-03-04 02:10:00,
2013-03-03 19:15:00,60.5,19.2,29.96,WNW,293,0.0,1.0,20,0.00,,BKN150,0.00,0.00,VWS V14.01,2013-03-04 02:15:00,
2013-03-03 19:20:00,60.3,19.1,29.96,WNW,293,3.0,4.0,20,0.00,,BKN150,0.00,0.00,VWS V14.01,2013-03-04 02:20:00,
2013-03-03 19:25:00,60.2,20.1,29.95,WNW,293,1.0,1.0,21,0.00,,BKN150,0.00,0.00,VWS V14.01,2013-03-04 02:25:00,
2013-03-03 19:30:00,60.0,21.1,29.95,WNW,293,0.0,1.0,22,0.00,,BKN150,0.00,0.00,VWS V14.01,2013-03-04 02:30:00,
2013-03-03 19:35:00,59.8,22.0,29.95,WNW,293,0.0,3.0,23,0.00,,BKN150,0.00,0.00,VWS V14.01,2013-03-04 02:35:00,
2013-03-03 19:40:00,59.7,21.9,29.95,WNW,293,0.0,0.0,23,0.00,,BKN150,0.00,0.00,VWS V14.01,2013-03-04 02:40:00,
2013-03-03 19:45:00,59.5,21.7,29.95,WNW,293,0.0,0.0,23,0.00,,BKN150,0.00,0.00,VWS V14.01,2013-03-04 02:45:00,
2013-03-03 19:50:00,59.4,22.6,29.95,WNW,293,0.0,0.0,24,0.00,,BKN150,0.00,0.00,VWS V14.01,2013-03-04 02:50:00,
2013-03-03 19:56:00,59.2,22.5,29.95,WNW,293,0.0,0.0,24,0.00,,BKN150,0.00,0.00,VWS V14.01,2013-03-04 02:56:00,
2013-03-03 20:01:00,59.1,22.4,29.95,WNW,293,0.0,0.0,24,0.00,,BKN150,0.00,0.00,VWS V14.01,2013-03-04 03:01:00,
2013-03-03 20:06:00,58.8,22.1,29.96,WNW,293,0.0,0.0,24,0.00,,BKN150,0.00,0.00,VWS V14.01,2013-03-04 03:06:00,
2013-03-03 20:11:00,58.6,21.9,29.95,WNW,293,0.0,0.0,24,0.00,,BKN150,0.00,0.00,VWS V14.01,2013-03-04 03:11:00,
2013-03-03 20:16:00,58.3,21.7,29.95,WNW,293,0.0,2.0,24,0.00,,BKN150,0.00,0.00,VWS V14.01,2013-03-04 03:16:00,
2013-03-03 20:21:00,57.9,21.4,29.95,WNW,293,0.0,3.0,24,0.00,,BKN150,0.00,0.00,VWS V14.01,2013-03-04 03:21:00,
2013-03-03 20:26:00,57.5,22.0,29.95,WNW,293,0.0,0.0,25,0.00,,BKN150,0.00,0.00,VWS V14.01,2013-03-04 03:26:00,
2013-03-03 20:31:00,57.1,21.6,29.95,WNW,293,0.0,0.0,25,0.00,,BKN150,0.00,0.00,VWS V14.01,2013-03-04 03:31:00,
2013-03-03 20:36:00,56.8,22.3,29.95,WNW,293,0.0,2.0,26,0.00,,BKN150,0.00,0.00,VWS V14.01,2013-03-04 03:36:00,
2013-03-03 20:41:00,56.5,22.0,29.95,WNW,293,0.0,0.0,26,0.00,,BKN150,0.00,0.00,VWS V14.01,2013-03-04 03:41:00,
2013-03-03 20:46:00,56.2,21.8,29.95,WNW,293,2.0,4.0,26,0.00,,BKN150,0.00,0.00,VWS V14.01,2013-03-04 03:46:00,
2013-03-03 20:51:00,56.0,21.6,29.95,WSW,257,3.0,7.0,26,0.00,,BKN150,0.00,0.00,VWS V14.01,2013-03-04 03:51:00,
2013-03-03 20:57:00,56.2,20.9,29.95,WSW,252,4.0,7.0,25,0.00,,BKN150,0.00,0.00,VWS V14.01,2013-03-04 03:57:00,
2013-03-03 21:02:00,56.4,21.0,29.95,WSW,256,3.0,8.0,25,0.00,,OVC130,0.00,0.00,VWS V14.01,2013-03-04 04:02:00,
2013-03-03 21:07:00,56.4,20.1,29.95,WSW,246,1.0,6.0,24,0.00,,OVC130,0.00,0.00,VWS V14.01,2013-03-04 04:07:00,
2013-03-03 21:12:00,56.4,20.1,29.95,SW,224,1.0,5.0,24,0.00,,OVC130,0.00,0.00,VWS V14.01,2013-03-04 04:12:00,
2013-03-03 21:17:00,56.3,20.0,29.95,West,269,0.0,2.0,24,0.00,,OVC130,0.00,0.00,VWS V14.01,2013-03-04 04:17:00,
2013-03-03 21:22:00,56.0,19.7,29.95,West,269,3.0,5.0,24,0.00,,OVC130,0.00,0.00,VWS V14.01,2013-03-04 04:22:00,
2013-03-03 21:27:00,55.9,20.6,29.95,West,269,1.0,4.0,25,0.00,,OVC130,0.00,0.00,VWS V14.01,2013-03-04 04:27:00,
2013-03-03 21:32:00,55.7,20.4,29.95,West,269,0.0,2.0,25,0.00,,OVC130,0.00,0.00,VWS V14.01,2013-03-04 04:32:00,
2013-03-03 21:37:00,55.5,20.3,29.95,West,269,1.0,2.0,25,0.00,,OVC130,0.00,0.00,VWS V14.01,2013-03-04 04:37:00,
2013-03-03 21:42:00,55.3,21.0,29.95,West,269,0.0,2.0,26,0.00,,OVC130,0.00,0.00,VWS V14.01,2013-03-04 04:42:00,
2013-03-03 21:47:00,55.2,21.8,29.95,West,267,1.0,6.0,27,0.00,,OVC130,0.00,0.00,VWS V14.01,2013-03-04 04:47:00,
2013-03-03 21:52:00,55.0,21.6,29.96,West,267,0.0,4.0,27,0.00,,OVC130,0.00,0.00,VWS V14.01,2013-03-04 04:52:00,
2013-03-03 21:57:00,54.8,21.5,29.96,WSW,258,0.0,5.0,27,0.00,,OVC130,0.00,0.00,VWS V14.01,2013-03-04 04:57:00,
2013-03-03 22:00:00,54.8,21.5,29.96,SW,229,4.0,4.0,27,0.00,,OVC130,0.00,0.00,VWS V14.01,2013-03-04 05:00:00,
2013-03-03 22:01:00,54.8,20.6,29.96,SW,229,0.0,4.0,26,0.00,,OVC240,0.00,0.00,VWS V14.01,2013-03-04 05:01:00,
2013-03-03 22:06:00,54.8,20.6,29.96,SW,229,1.0,4.0,26,0.00,,OVC240,0.00,0.00,VWS V14.01,2013-03-04 05:06:00,
2013-03-03 22:11:00,54.8,20.6,29.96,SW,229,1.0,4.0,26,0.00,,OVC240,0.00,0.00,VWS V14.01,2013-03-04 05:11:00,
2013-03-03 22:16:00,54.9,20.7,29.96,SW,234,3.0,6.0,26,0.00,,OVC240,0.00,0.00,VWS V14.01,2013-03-04 05:16:00,
2013-03-03 22:21:00,55.0,20.8,29.96,SW,220,6.0,6.0,26,0.00,,OVC240,0.00,0.00,VWS V14.01,2013-03-04 05:21:00,
2013-03-03 22:26:00,55.2,20.9,29.96,WSW,241,4.0,6.0,26,0.00,,OVC240,0.00,0.00,VWS V14.01,2013-03-04 05:26:00,
2013-03-03 22:31:00,55.4,20.2,29.96,SW,223,3.0,5.0,25,0.00,,OVC240,0.00,0.00,VWS V14.01,2013-03-04 05:31:00,
2013-03-03 22:36:00,55.4,20.2,29.96,SW,233,0.0,2.0,25,0.00,,OVC240,0.00,0.00,VWS V14.01,2013-03-04 05:36:00,
2013-03-03 22:42:00,55.4,20.2,29.96,SW,233,2.0,3.0,25,0.00,,OVC240,0.00,0.00,VWS V14.01,2013-03-04 05:42:00,
2013-03-03 22:47:00,55.3,21.0,29.96,SW,231,0.0,4.0,26,0.00,,OVC240,0.00,0.00,VWS V14.01,2013-03-04 05:47:00,
2013-03-03 22:52:00,55.3,23.6,29.95,WSW,244,2.0,4.0,29,0.00,,OVC240,0.00,0.00,VWS V14.01,2013-03-04 05:52:00,
2013-03-03 22:57:00,55.3,23.6,29.95,WSW,253,5.0,8.0,29,0.00,,OVC240,0.00,0.00,VWS V14.01,2013-03-04 05:57:00,
2013-03-03 23:02:00,55.2,23.5,29.95,SSW,207,1.0,3.0,29,0.00,,OVC130,0.00,0.00,VWS V14.01,2013-03-04 06:02:00,
2013-03-03 23:07:00,55.1,23.4,29.95,SW,230,2.0,4.0,29,0.00,,OVC130,0.00,0.00,VWS V14.01,2013-03-04 06:07:00,
2013-03-03 23:12:00,55.1,23.4,29.95,SW,229,0.0,2.0,29,0.00,,OVC130,0.00,0.00,VWS V14.01,2013-03-04 06:12:00,
2013-03-03 23:17:00,55.0,23.4,29.95,SW,229,0.0,1.0,29,0.00,,OVC130,0.00,0.00,VWS V14.01,2013-03-04 06:17:00,
2013-03-03 23:22:00,54.8,23.2,29.95,SW,229,1.0,3.0,29,0.00,,OVC130,0.00,0.00,VWS V14.01,2013-03-04 06:22:00,
2013-03-03 23:27:00,54.6,23.0,29.95,SW,229,0.0,3.0,29,0.00,,OVC130,0.00,0.00,VWS V14.01,2013-03-04 06:27:00,
2013-03-03 23:32:00,54.4,22.8,29.95,SW,229,0.0,0.0,29,0.00,,OVC130,0.00,0.00,VWS V14.01,2013-03-04 06:32:00,
2013-03-03 23:37:00,54.2,22.6,29.95,SW,229,0.0,2.0,29,0.00,,OVC130,0.00,0.00,VWS V14.01,2013-03-04 06:37:00,
2013-03-03 23:42:00,54.0,22.5,29.95,SW,229,0.0,0.0,29,0.00,,OVC130,0.00,0.00,VWS V14.01,2013-03-04 06:42:00,
2013-03-03 23:47:00,53.8,22.3,29.95,SW,229,0.0,0.0,29,0.00,,OVC130,0.00,0.00,VWS V14.01,2013-03-04 06:47:00,
2013-03-03 23:52:00,53.6,22.9,29.95,SW,229,0.0,0.0,30,0.00,,OVC130,0.00,0.00,VWS V14.01,2013-03-04 06:52:00,
2013-03-03 23:57:00,53.4,22.8,29.95,SW,229,0.0,1.0,30,0.00,,OVC130,0.00,0.00,VWS V14.01,2013-03-04 06:57:00,